• en Belgique
  • Liste des pays
  • À 7 jours
  • Température de l'eau
  • Carte satellitaire
  • Carte météo
  • Widgets météo
  • user-avatar
    Se connecter

    Météo par heure à Etchmiadzin

    Ce jour, 23 Novembre, Jeudi

    Heure Température Précipitation Vent Pression Humidité
    00:00 +2°C° 0 mm 1 m/s 681 mmHg 70%
    01:00 +2°C° 0 mm 1 m/s 681 mmHg 69%
    02:00 +2°C° 0 mm 1 m/s 681 mmHg 67%
    03:00 +2°C° 0 mm 1 m/s 681 mmHg 66%
    04:00 +1°C° 0,1 mm 2 m/s 681 mmHg 66%
    05:00 +1°C° 0,1 mm 2 m/s 682 mmHg 67%
    06:00 -1°C° 0,1 mm 2 m/s 682 mmHg 67%
    07:00 +1°C° 0,1 mm 2 m/s 682 mmHg 66%
    08:00 +1°C° 0,1 mm 3 m/s 682 mmHg 64%
    09:00 +2°C° 0 mm 3 m/s 682 mmHg 61%
    10:00 +2°C° 0,1 mm 3 m/s 682 mmHg 57%
    11:00 +3°C° 0,1 mm 3 m/s 681 mmHg 53%
    12:00 +4°C° 0,1 mm 3 m/s 681 mmHg 48%
    13:00 +4°C° 0,1 mm 3 m/s 682 mmHg 48%
    14:00 +4°C° 0,1 mm 3 m/s 682 mmHg 49%
    15:00 +3°C° 0,1 mm 3 m/s 682 mmHg 49%
    16:00 +4°C° 0,1 mm 2 m/s 682 mmHg 52%
    17:00 +3°C° 0,1 mm 2 m/s 682 mmHg 55%
    18:00 +2°C° 0,1 mm 2 m/s 683 mmHg 59%
    19:00 +2°C° 0,2 mm 2 m/s 683 mmHg 61%
    20:00 +3°C° 0,2 mm 1 m/s 684 mmHg 63%
    21:00 +3°C° 0,2 mm 1 m/s 684 mmHg 65%
    22:00 +2°C° 0,2 mm 1 m/s 684 mmHg 67%
    23:00 +2°C° 0,2 mm 1 m/s 684 mmHg 68%

    Demain, 24 Novembre, Vendredi

    Heure Température Précipitation Vent Pression Humidité
    00:00 +2°C° 0,2 mm 1 m/s 684 mmHg 70%
    01:00 +1°C° 0,1 mm 1 m/s 684 mmHg 71%
    02:00 +1°C° 0,1 mm 1 m/s 684 mmHg 71%
    03:00 +1°C° 0,1 mm 1 m/s 684 mmHg 72%
    04:00 +1°C° 0,1 mm 1 m/s 684 mmHg 72%
    05:00 +1°C° 0,1 mm 1 m/s 684 mmHg 72%
    06:00 0°C° 0,1 mm 1 m/s 684 mmHg 72%
    07:00 +1°C° 0,1 mm 1 m/s 685 mmHg 69%
    08:00 +1°C° 0,1 mm 1 m/s 685 mmHg 67%
    09:00 +1°C° 0,1 mm 1 m/s 685 mmHg 65%
    10:00 +2°C° 0 mm 1 m/s 685 mmHg 61%
    11:00 +2°C° 0 mm 1 m/s 685 mmHg 57%
    12:00 +2°C° 0 mm 2 m/s 685 mmHg 53%
    13:00 +3°C° 0 mm 1 m/s 685 mmHg 52%
    14:00 +3°C° 0 mm 1 m/s 685 mmHg 51%
    15:00 +3°C° 0 mm 1 m/s 685 mmHg 50%
    16:00 +2°C° 0 mm 1 m/s 686 mmHg 52%
    17:00 +1°C° 0 mm 1 m/s 686 mmHg 55%
    18:00 0°C° 0 mm 1 m/s 686 mmHg 57%
    19:00 -2°C° 0 mm 2 m/s 687 mmHg 58%
    20:00 -2°C° 0 mm 2 m/s 687 mmHg 58%
    21:00 -3°C° 0 mm 2 m/s 687 mmHg 58%
    22:00 -3°C° 0 mm 2 m/s 687 mmHg 59%
    23:00 -3°C° 0 mm 2 m/s 687 mmHg 59%

    Après-demain, 25 Novembre, Samedi

    Heure Température Précipitation Vent Pression Humidité
    00:00 -4°C° 0 mm 2 m/s 687 mmHg 60%
    01:00 -4°C° 0 mm 2 m/s 688 mmHg 60%
    02:00 -4°C° 0 mm 2 m/s 688 mmHg 60%
    03:00 -4°C° 0 mm 2 m/s 688 mmHg 60%
    04:00 -4°C° 0 mm 2 m/s 689 mmHg 61%
    05:00 -4°C° 0 mm 2 m/s 689 mmHg 61%
    06:00 -4°C° 0 mm 2 m/s 689 mmHg 62%
    07:00 -3°C° 0,1 mm 2 m/s 690 mmHg 60%
    08:00 -2°C° 0,1 mm 2 m/s 691 mmHg 59%
    09:00 -1°C° 0,1 mm 2 m/s 691 mmHg 57%
    10:00 -1°C° 0 mm 2 m/s 691 mmHg 55%
    11:00 +1°C° 0 mm 2 m/s 691 mmHg 52%
    12:00 +2°C° 0 mm 2 m/s 691 mmHg 49%
    13:00 +2°C° 0 mm 2 m/s 691 mmHg 48%
    14:00 +2°C° 0 mm 2 m/s 691 mmHg 47%
    15:00 +4°C° 0 mm 1 m/s 691 mmHg 46%
    16:00 +1°C° 0 mm 2 m/s 692 mmHg 48%
    17:00 -1°C° 0 mm 2 m/s 692 mmHg 50%
    18:00 -2°C° 0 mm 2 m/s 692 mmHg 52%
    19:00 -2°C° 0 mm 2 m/s 693 mmHg 53%
    20:00 -3°C° 0 mm 2 m/s 693 mmHg 53%
    21:00 -1°C° 0 mm 1 m/s 693 mmHg 53%
    22:00 -1°C° 0 mm 1 m/s 693 mmHg 53%
    23:00 -1°C° 0 mm 1 m/s 693 mmHg 53%

    26 Novembre, Dimanche

    Heure Température Précipitation Vent Pression Humidité
    00:00 -1°C° 0 mm 1 m/s 693 mmHg 53%
    01:00 -1°C° 0 mm 1 m/s 693 mmHg 53%
    02:00 -2°C° 0 mm 1 m/s 693 mmHg 53%
    03:00 -2°C° 0 mm 1 m/s 693 mmHg 53%
    04:00 -2°C° 0 mm 1 m/s 692 mmHg 53%
    05:00 -2°C° 0 mm 1 m/s 692 mmHg 52%
    06:00 -2°C° 0 mm 1 m/s 692 mmHg 52%
    07:00 -1°C° 0 mm 1 m/s 692 mmHg 49%
    08:00 +1°C° 0 mm 1 m/s 692 mmHg 47%
    09:00 +2°C° 0 mm 1 m/s 693 mmHg 44%
    10:00 +3°C° 0 mm 1 m/s 692 mmHg 42%
    11:00 +4°C° 0 mm 2 m/s 691 mmHg 39%
    12:00 +5°C° 0 mm 2 m/s 691 mmHg 37%
    13:00 +5°C° 0 mm 2 m/s 690 mmHg 36%
    14:00 +5°C° 0 mm 2 m/s 690 mmHg 36%
    15:00 +5°C° 0 mm 2 m/s 689 mmHg 35%
    16:00 +4°C° 0 mm 2 m/s 689 mmHg 37%
    17:00 +3°C° 0 mm 1 m/s 689 mmHg 39%
    18:00 +2°C° 0 mm 1 m/s 689 mmHg 40%
    19:00 +1°C° 0 mm 1 m/s 690 mmHg 39%
    20:00 +1°C° 0 mm 1 m/s 690 mmHg 38%
    21:00 +1°C° 0 mm 1 m/s 690 mmHg 37%
    22:00 +1°C° 0 mm 1 m/s 690 mmHg 37%
    23:00 +1°C° 0 mm 1 m/s 690 mmHg 37%

    27 Novembre, Lundi

    Heure Température Précipitation Vent Pression Humidité
    00:00 0°C° 0 mm 1 m/s 690 mmHg 37%
    01:00 0°C° 0 mm 1 m/s 689 mmHg 37%
    02:00 0°C° 0 mm 1 m/s 689 mmHg 37%
    03:00 0°C° 0 mm 1 m/s 689 mmHg 37%
    04:00 0°C° 0 mm 1 m/s 689 mmHg 37%
    05:00 0°C° 0 mm 1 m/s 689 mmHg 37%
    06:00 0°C° 0 mm 1 m/s 689 mmHg 37%
    07:00 +1°C° 0 mm 1 m/s 689 mmHg 36%
    08:00 +3°C° 0 mm 1 m/s 689 mmHg 35%
    09:00 +4°C° 0 mm 1 m/s 689 mmHg 33%
    10:00 +5°C° 0 mm 1 m/s 689 mmHg 33%
    11:00 +7°C° 0 mm 1 m/s 688 mmHg 32%
    12:00 +8°C° 0 mm 1 m/s 688 mmHg 32%
    13:00 +8°C° 0 mm 1 m/s 687 mmHg 31%
    14:00 +8°C° 0 mm 1 m/s 687 mmHg 31%
    15:00 +8°C° 0 mm 1 m/s 687 mmHg 31%
    16:00 +6°C° 0 mm 1 m/s 687 mmHg 33%
    17:00 +5°C° 0 mm 1 m/s 687 mmHg 34%
    18:00 +3°C° 0 mm 1 m/s 687 mmHg 35%
    19:00 +3°C° 0 mm 1 m/s 687 mmHg 36%
    20:00 +3°C° 0 mm 1 m/s 687 mmHg 36%
    21:00 +3°C° 0 mm 1 m/s 687 mmHg 37%
    22:00 +3°C° 0 mm 1 m/s 687 mmHg 38%
    23:00 +2°C° 0 mm 1 m/s 687 mmHg 40%

    28 Novembre, Mardi

    Heure Température Précipitation Vent Pression Humidité
    00:00 +2°C° 0 mm 1 m/s 687 mmHg 41%
    01:00 +2°C° 0 mm 1 m/s 687 mmHg 42%
    02:00 +2°C° 0 mm 1 m/s 687 mmHg 44%
    03:00 +2°C° 0 mm 1 m/s 687 mmHg 45%
    04:00 +2°C° 0 mm 1 m/s 687 mmHg 47%
    05:00 +2°C° 0 mm 1 m/s 686 mmHg 48%
    06:00 +1°C° 0 mm 1 m/s 686 mmHg 49%
    07:00 +3°C° 0 mm 1 m/s 687 mmHg 48%
    08:00 +4°C° 0 mm 1 m/s 687 mmHg 48%
    09:00 +5°C° 0 mm 1 m/s 687 mmHg 47%
    10:00 +5°C° 0 mm 2 m/s 687 mmHg 46%
    11:00 +6°C° 0 mm 2 m/s 686 mmHg 46%
    12:00 +8°C° 0 mm 2 m/s 685 mmHg 46%
    13:00 +8°C° 0 mm 2 m/s 685 mmHg 47%
    14:00 +8°C° 0 mm 2 m/s 685 mmHg 48%
    15:00 +8°C° 0 mm 2 m/s 685 mmHg 49%
    16:00 +6°C° 0 mm 2 m/s 685 mmHg 51%
    17:00 +5°C° 0 mm 2 m/s 686 mmHg 54%
    18:00 +4°C° 0 mm 2 m/s 686 mmHg 56%
    19:00 +3°C° 0 mm 2 m/s 686 mmHg 58%
    20:00 +4°C° 0 mm 1 m/s 686 mmHg 59%
    21:00 +4°C° 0 mm 1 m/s 686 mmHg 60%
    22:00 +4°C° 0 mm 1 m/s 686 mmHg 61%
    23:00 +4°C° 0 mm 1 m/s 687 mmHg 62%
    Voir plus